FW6463 Weather Reports


time (UTC)temp
C
wind
direction
speed
KPH
gust
KPH
rain 1hr
cm
rain 24hr
cm
rain mn
cm
humidity
%
barometer
mb
20260510234527 17 203 0.0 1.6 0.00 0.03 0.03 80 1019.2
20260510233532 17 291 3.2 4.8 0.00 0.03 0.03 80 1018.8
20260510232540 17 315 3.2 6.4 0.00 0.03 0.03 81 1018.7
20260510231525 17 318 1.6 4.8 0.00 0.03 0.03 83 1018.6
20260510230528 18 0.0 0.0 0.00 0.03 0.03 79 1018.5
20260510225516 18 277 4.8 9.7 0.00 0.03 0.03 78 1018.3
20260510224520 18 257 3.2 4.8 0.00 0.03 0.03 79 1018.3
20260510223525 19 288 4.8 9.7 0.00 0.03 0.03 78 1018.3
20260510222529 19 297 6.4 9.7 0.00 0.03 0.03 77 1018.0
20260510221516 20 4.8 4.8 0.00 0.03 0.03 77 1017.9
20260510220521 19 310 3.2 6.4 0.00 0.03 0.03 81 1017.9
20260510215526 20 273 4.8 8.0 0.00 0.03 0.03 79 1017.8
20260510214551 20 228 3.2 4.8 0.00 0.03 0.03 85 1017.8
20260510213518 19 176 3.2 4.8 0.03 0.03 0.03 87 1017.6
20260510212522 18 165 4.8 6.4 0.03 0.03 0.03 92 1017.9
20260510211527 17 178 3.2 4.8 0.03 0.03 0.03 97 1017.8
20260510210526 17 176 3.2 4.8 0.03 0.03 0.03 99 1017.7
20260510205539 17 132 1.6 3.2 0.03 0.03 0.03 95 1017.6
20260510204523 18 28 3.2 4.8 0.03 0.03 0.03 91 1017.4
20260510203522 18 343 3.2 4.8 0.00 0.00 0.00 88 1017.4
20260510202515 18 307 4.8 6.4 0.00 0.00 0.00 89 1017.6
20260510201520 18 29 3.2 4.8 0.00 0.00 0.00 89 1017.4
20260510200519 18 302 4.8 6.4 0.00 0.00 0.00 88 1017.2
20260510195518 19 359 3.2 6.4 0.00 0.00 0.00 87 1017.2
20260510194516 19 355 4.8 6.4 0.00 0.00 0.00 86 1017.4
20260510193516 18 56 3.2 4.8 0.00 0.00 0.00 87 1017.3
20260510192526 18 280 1.6 3.2 0.00 0.00 0.00 86 1017.6
20260510191552 19 0.0 0.0 0.00 0.00 0.00 86 1017.5
20260510190518 19 312 1.6 4.8 0.00 0.00 0.00 83 1017.5
20260510185524 20 241 1.6 3.2 0.00 0.00 0.00 81 1017.6
20260510184527 20 308 1.6 4.8 0.00 0.00 0.00 78 1017.3
20260510183533 20 274 3.2 6.4 0.00 0.00 0.00 78 1017.0
20260510182519 19 230 3.2 4.8 0.00 0.00 0.00 78 1017.1
20260510181524 20 243 3.2 4.8 0.00 0.00 0.00 78 1017.1
20260510180528 20 189 4.8 8.0 0.00 0.00 0.00 79 1017.1
20260510175516 19 245 3.2 3.2 0.00 0.00 0.00 80 1017.1
20260510174521 19 178 3.2 4.8 0.00 0.00 0.00 80 1017.3
20260510173525 19 236 3.2 6.4 0.00 0.00 0.00 81 1017.3
20260510172531 20 213 3.2 4.8 0.00 0.00 0.00 79 1017.3
20260510171516 19 230 3.2 6.4 0.00 0.00 0.00 80 1017.3
20260510170522 19 229 4.8 6.4 0.00 0.00 0.00 80 1017.3
20260510165526 19 236 3.2 4.8 0.00 0.00 0.00 81 1017.4
20260510164531 19 253 4.8 6.4 0.00 0.00 0.00 81 1017.2
20260510163539 18 177 4.8 8.0 0.00 0.00 0.00 82 1017.4
20260510162522 18 218 3.2 6.4 0.00 0.00 0.00 82 1017.4
20260510161527 18 205 4.8 6.4 0.00 0.00 0.00 82 1017.5
20260510160533 18 215 4.8 6.4 0.00 0.00 0.00 82 1017.6
20260510155519 19 233 6.4 9.7 0.00 0.03 0.00 80 1017.6
20260510154545 19 6.4 6.4 0.00 0.03 0.00 80 1017.4
20260510153528 18 234 4.8 8.0 0.00 0.08 0.00 81 1017.6
20260510152515 18 230 6.4 9.7 0.00 0.08 0.00 81 1017.6
20260510151521 18 248 12.9 12.9 0.00 0.13 0.00 79 1017.5
20260510150545 18 250 6.4 11.3 0.00 0.18 0.00 83 1017.3
20260510145530 18 244 6.4 9.7 0.00 0.23 0.00 84 1016.9
20260510144516 18 254 6.4 9.7 0.00 0.23 0.00 83 1016.8
20260510143521 18 268 6.4 9.7 0.00 0.28 0.00 84 1016.5
20260510142527 17 261 8.0 9.7 0.00 0.33 0.00 84 1016.5
20260510141531 17 255 6.4 9.7 0.00 0.38 0.00 85 1016.5
20260510140517 17 225 4.8 8.0 0.00 0.41 0.00 86 1016.4
20260510135522 17 252 4.8 9.7 0.00 0.43 0.00 88 1016.4
20260510134527 16 250 3.2 6.4 0.00 0.46 0.00 87 1016.6
20260510133533 16 277 3.2 4.8 0.00 0.46 0.00 89 1016.5
20260510132518 16 257 3.2 4.8 0.00 0.46 0.00 91 1016.4
20260510131524 15 303 1.6 3.2 0.00 0.46 0.00 93 1016.5
20260510130528 14 195 1.6 4.8 0.00 0.46 0.00 94 1016.5
20260510125516 14 229 1.6 3.2 0.00 0.46 0.00 95 1016.3
20260510124520 13 241 1.6 3.2 0.00 0.46 0.00 98 1016.2
20260510123524 13 257 3.2 4.8 0.00 0.46 0.00 99 1016.1
20260510122529 13 191 3.2 4.8 0.00 0.48 0.00 98 1016.1
20260510121516 12 174 4.8 6.4 0.00 0.48 0.00 99 1016.2
20260510120522 12 184 3.2 4.8 0.00 0.48 0.00 99 1016.3
20260510115525 11 215 1.6 3.2 0.00 0.48 0.00 99 1016.5
20260510114531 11 308 1.6 4.8 0.00 0.48 0.00 99 1016.1
20260510113518 10 315 1.6 4.8 0.00 0.48 0.00 99 1015.6
20260510112522 10 0.0 0.0 0.00 0.48 0.00 99 1015.6
20260510111526 10 0.0 0.0 0.00 0.48 0.00 99 1015.5
20260510110526 10 0.0 0.0 0.00 0.48 0.00 99 1015.3
20260510105518 10 0.0 0.0 0.00 0.48 0.00 99 1015.2
20260510104523 10 0.0 0.0 0.00 0.48 0.00 99 1015.1
20260510103521 10 176 1.6 3.2 0.00 0.48 0.00 99 1015.0
20260510102521 10 235 1.6 4.8 0.00 0.48 0.00 99 1014.7
20260510101519 10 312 3.2 4.8 0.00 0.48 0.00 99 1014.4
20260510100518 10 172 1.6 3.2 0.00 0.48 0.00 99 1014.2
20260510095516 10 122 0.0 3.2 0.00 0.48 0.00 99 1014.2
20260510094515 11 158 3.2 4.8 0.00 0.48 0.00 99 1014.5
20260510093520 11 183 3.2 4.8 0.00 0.48 0.00 99 1014.5
20260510092525 11 169 4.8 6.4 0.00 0.48 0.00 99 1014.6
20260510091550 11 166 4.8 8.0 0.00 0.48 0.00 99 1014.7
20260510090516 11 158 4.8 8.0 0.00 0.48 0.00 99 1014.9
20260510085541 10 176 4.8 8.0 0.00 0.48 0.00 99 1015.5
20260510084526 10 176 3.2 4.8 0.00 0.48 0.00 99 1015.7
20260510083530 10 270 1.6 6.4 0.00 0.48 0.00 99 1015.2
20260510082517 10 1 6.4 11.3 0.00 0.48 0.00 99 1014.2
20260510081542 10 326 3.2 6.4 0.00 0.48 0.00 99 1013.9
20260510080547 10 293 0.0 3.2 0.00 0.48 0.00 99 1013.7
20260510075532 10 0.0 0.0 0.00 0.48 0.00 99 1013.7
20260510074518 10 164 1.6 4.8 0.00 0.48 0.00 99 1013.7
20260510073544 10 164 3.2 3.2 0.00 0.48 0.00 99 1013.7
20260510072548 10 180 3.2 3.2 0.00 0.48 0.00 99 1013.6
20260510071532 10 180 1.6 3.2 0.00 0.48 0.00 99 1013.6
20260510070519 10 180 1.6 6.4 0.00 0.48 0.00 99 1013.7
20260510065544 10 187 3.2 6.4 0.00 0.48 0.00 99 1013.9
20260510064529 10 169 4.8 8.0 0.00 0.48 0.00 99 1014.2
20260510063515 9 171 3.2 4.8 0.00 0.48 0.00 99 1014.4
20260510062520 8 175 1.6 4.8 0.00 0.48 0.00 99 1014.6
20260510061525 9 0.0 0.0 0.00 0.48 0.00 99 1014.8
20260510060530 9 179 3.2 3.2 0.00 0.48 0.00 99 1015.1
20260510055518 8 176 3.2 4.8 0.00 0.48 0.00 99 1014.9
20260510054521 8 347 6.4 17.7 0.00 0.48 0.00 99 1014.2
20260510053607 7 180 1.6 3.2 0.00 0.48 0.00 99 1014.4
20260510052531 7 163 3.2 4.8 0.00 0.48 0.00 99 1014.5
20260510051518 7 180 1.6 4.8 0.00 0.48 0.00 99 1014.4
20260510050523 7 0.0 0.0 0.00 0.48 0.00 99 1014.2
20260510045527 7 0.0 0.0 0.00 0.48 0.00 99 1014.0
20260510044532 7 0.0 0.0 0.00 0.48 0.00 99 1014.0
20260510043519 7 264 1.6 4.8 0.00 0.48 0.00 99 1013.7
20260510042545 7 0.0 0.0 0.00 0.48 0.00 99 1013.7
20260510041529 7 0.0 0.0 0.00 0.48 0.00 99 1013.7
20260510040515 7 0.0 0.0 0.00 0.48 0.00 99 1013.6
20260510035520 8 0.0 0.0 0.00 0.48 0.48 99 1013.5
20260510034525 8 0.0 0.0 0.00 0.48 0.48 99 1013.5
20260510033529 8 0.0 0.0 0.00 0.48 0.48 99 1013.5
20260510032516 8 0.0 0.0 0.00 0.48 0.48 99 1013.7
20260510031521 8 0.0 0.0 0.00 0.48 0.48 99 1013.7
20260510030526 8 0.0 0.0 0.00 0.48 0.48 99 1013.7
20260510025545 8 0.0 0.0 0.00 0.48 0.48 99 1013.7
20260510024517 8 0.0 0.0 0.00 0.48 0.48 99 1013.7
20260510023521 9 166 1.6 3.2 0.00 0.48 0.48 99 1013.7
20260510022520 9 146 1.6 3.2 0.00 0.48 0.48 99 1013.7
20260510021519 9 169 1.6 3.2 0.00 0.48 0.48 99 1013.6
20260510020539 9 0.0 1.6 0.00 0.48 0.48 99 1013.5
20260510015537 10 0.0 0.0 0.00 0.48 0.48 99 1013.5
20260510014517 10 0.0 0.0 0.00 0.48 0.48 99 1013.2
20260510013532 10 180 0.0 1.6 0.00 0.48 0.48 99 1013.0
20260510012540 10 170 1.6 4.8 0.00 0.48 0.48 99 1013.0
20260510011524 10 0.0 0.0 0.00 0.48 0.48 99 1012.8
20260510010529 11 0.0 0.0 0.00 0.48 0.48 99 1012.7
20260510005515 11 0.0 0.0 0.00 0.48 0.48 99 1012.5
20260510004540 12 0.0 0.0 0.00 0.48 0.48 99 1012.4
20260510003525 12 0.0 0.0 0.00 0.48 0.48 99 1012.4
20260510002530 13 0.0 0.0 0.00 0.48 0.48 96 1012.3
20260510001536 14 0.0 0.0 0.00 0.48 0.48 93 1012.3
20260510000521 15 0.0 0.0 0.00 0.48 0.48 92 1012.3
20260509235527 16 0.0 0.0 0.00 0.48 0.48 89 1012.2